Location: Chenereilles
(45.4866°N, 4.0790°E)
Time: 13:55:36
(UTC+00:00)

Cosmos 1656 - Pass Details

Date: 12 November 2019
Orbit: 800 x 847 km, 71.1° (Epoch: 11 December)

Event Time Altitude Azimuth Distance (km) Brightness Sun altitude
Rises 17:19:11 0° 174° (S) 3,359 6.9 -11.1°
Reaches altitude 10° 17:21:52 10° 164° (SSE) 2,422 6.1 -11.5°
Maximum altitude 17:26:38 30° 104° (ESE) 1,428 4.4 -12.4°
Enters shadow 17:30:23 15° 51° (NE) 2,097 5.2 -13.0°
